User: anonymous   Login
Location: Kelshall
(52.0000°N, 0.0500°W)
Time: 02:28:01
(UTC+00:00)
Language:

NOSS 8 (H) - Orbit

View from above orbital plane
View from above orbital plane
View from above satellite
View from above satellite

Ground track
Ground track

The orbit data is extracted from the following two-line orbital elements,

1 18025U 87043H   20338.49725513  .00001042  00000-0  98927-4 0  9996
2 18025  63.3022  53.1489 0943380  63.5406 305.9255 13.46074385 76323
Epoch (UTC): 03 December 2020 11:56:02
Eccentricity: 0.0943380
inclination: 63.3022°
perigee height: 382 km
apogee height: 1791 km
right ascension of ascending node: 53.1489°
argument of perigee: 63.5406°
revolutions per day: 13.46074385
mean anomaly at epoch: 305.9255°
orbit number at epoch: 7632

The dashed part of the orbit path shows where the satellite is in the earth's shadow,  

DLR